Location: Vancouver
(49.2500°N, 123.1330°W)
Time: 08:22:16
(UTC-07:00)

Cosmos 2333 Rocket - Visible Passes

Search period start: 21 April 2018 00:00
Search period end: 01 May 2018 00:00
Orbit: 841 x 860 km, 70.8° (Epoch: 21 April)

Date Brightness Start Highest point End Pass type
(mag) Time Alt. Az. Time Alt. Az. Time Alt. Az.
21 Apr 5.1 00:02:15 10° WNW 00:05:24 15° NNW 00:08:34 10° N visible
21 Apr 5.4 03:37:46 10° N 03:39:50 12° NNE 03:41:53 10° NE visible
21 Apr 4.0 05:20:39 10° NNW 05:25:53 37° NE 05:31:06 10° ESE visible
21 Apr 3.1 22:01:56 10° SW 22:07:27 52° NW 22:12:59 10° NNE visible
21 Apr 5.2 23:49:58 10° WNW 23:53:07 15° NNW 23:56:17 10° N visible
22 Apr 5.4 03:25:29 10° N 03:27:32 12° NNE 03:29:36 10° NE visible
22 Apr 4.0 05:08:22 10° NNW 05:13:36 37° NE 05:18:50 10° ESE visible
22 Apr 3.1 21:49:40 10° SW 21:55:11 52° NW 22:00:43 10° NNE visible
22 Apr 5.2 23:37:42 10° WNW 23:40:51 15° NNW 23:44:00 10° N visible
23 Apr 5.5 03:13:12 10° N 03:15:16 12° NNE 03:17:20 10° NE visible
23 Apr 4.0 04:56:06 10° NNW 05:01:20 37° NE 05:06:33 10° ESE visible
23 Apr 3.2 21:37:23 10° SW 21:42:54 52° NW 21:48:25 10° NNE visible
23 Apr 5.3 23:25:25 10° WNW 23:28:34 15° NNW 23:31:44 10° N visible
24 Apr 5.5 03:00:56 10° N 03:03:00 12° NNE 03:05:03 10° NE visible
24 Apr 3.9 04:43:49 10° NNW 04:49:04 37° NE 04:54:17 10° ESE visible
24 Apr 3.2 21:25:07 10° SW 21:30:38 52° NW 21:36:09 10° NNE visible
24 Apr 5.3 23:13:09 10° WNW 23:16:18 15° NNW 23:19:27 10° N visible
25 Apr 5.5 02:48:40 10° N 02:50:43 12° NNE 02:52:47 10° NE visible
25 Apr 3.9 04:31:32 10° NNW 04:36:47 37° NE 04:42:00 10° ESE visible
25 Apr 3.2 21:12:50 10° SW 21:18:21 52° NW 21:23:53 10° NNE visible
25 Apr 5.3 23:00:52 10° WNW 23:04:01 15° NNW 23:07:11 10° N visible
26 Apr 5.5 02:36:23 10° N 02:38:27 12° NNE 02:40:31 10° NE visible
26 Apr 3.9 04:19:16 10° NNW 04:24:31 37° NE 04:29:44 10° ESE visible
26 Apr 3.3 21:00:34 10° SW 21:06:04 52° NW 21:11:36 10° NNE visible
26 Apr 5.3 22:48:36 10° WNW 22:51:44 15° NNW 22:54:54 10° N visible
27 Apr 5.5 02:24:06 10° N 02:26:10 12° NNE 02:28:14 10° NE visible
27 Apr 3.9 04:06:59 10° NNW 04:12:14 37° NE 04:17:28 10° ESE visible
27 Apr 3.3 20:48:17 10° SW 20:53:48 52° NW 20:59:20 10° NNE visible
27 Apr 5.3 22:36:19 10° WNW 22:39:28 15° NNW 22:42:38 10° N visible
28 Apr 5.4 02:11:50 10° N 02:13:54 12° NNE 02:15:58 10° NE visible
28 Apr 3.8 03:54:43 10° NNW 03:59:58 37° NE 04:05:11 10° ESE visible
28 Apr 5.3 22:24:02 10° WNW 22:27:12 15° NNW 22:30:21 10° N visible
29 Apr 5.4 01:59:34 10° N 02:01:38 12° NNE 02:03:41 10° NE visible
29 Apr 3.8 03:42:27 10° NNW 03:47:41 37° NE 03:52:55 10° ESE visible
29 Apr 5.3 22:11:46 10° WNW 22:14:56 15° NNW 22:18:05 10° N visible
30 Apr 5.3 01:47:17 10° N 01:49:21 12° NNE 01:51:25 10° NE visible
30 Apr 3.8 03:30:10 10° NNW 03:35:25 37° NE 03:40:39 10° ESE visible
30 Apr 2.5 05:14:25 10° NW 05:19:49 46° WSW 05:25:12 10° S visible
30 Apr 5.2 21:59:30 10° WNW 22:02:39 15° NNW 22:05:49 10° N visible
